Location: Thompson
(55.7500°N, 97.8670°W)
Time: 10:31:35
(UTC-06:00)

Amateur Radio Satellites - All Passes

Search period start: 02 March 2015 10:01
Search period end: 03 March 2015 10:01
Location: Thompson, 55.7500°N, 97.8670°W

Satellite Date Start Highest point End Downlink Frequencies (MHz)
Time Altitude Azimuth
Oscar 11 02 Mar 10:03:04 10:07:14 45° 98° (E) 10:11:25 145.826/435.025
CUBEBUG 2 02 Mar 10:06:13 10:10:08 37° 96° (E) 10:14:00 437.445
NANOSAT C BR1 02 Mar 10:10:35 10:14:51 66° 70° (ENE) 10:19:07 145.865
AAUSAT CUBESAT 2 02 Mar 10:14:23 10:18:35 80° 287° (WNW) 10:22:47 437.432
COMPASS 1 02 Mar 10:16:36 10:20:48 69° 289° (WNW) 10:24:59 437.405
UNISAT 6 02 Mar 10:18:03 10:22:25 69° 257° (WSW) 10:26:44 437.425
CUSAT 1 02 Mar 10:21:18 10:23:38 22° 63° (ENE) 10:25:50 437.405
BRITE-PL 02 Mar 10:23:57 10:28:23 36° 298° (WNW) 10:32:27 437.365/2234.400
DX 1 02 Mar 10:26:32 10:30:39 38° 97° (E) 10:34:45 434.975-435.025
AISAT 02 Mar 10:27:58 10:31:21 21° 89° (E) 10:34:48 437.250
GOMX 1 02 Mar 10:31:09 10:35:29 40° 295° (WNW) 10:39:31 467.674
CUBEBUG 1 02 Mar 10:34:12 10:36:01 12° 83° (E) 10:38:01 437.445
RS-15 02 Mar 10:36:53 10:45:49 27° 256° (WSW) 10:54:39 29.354- 29.394
VELOX 1 02 Mar 10:37:34 10:41:13 25° 91° (E) 10:44:55 145.980
ISS 02 Mar 10:38:11 10:40:33 19° 153° (SSE) 10:42:57 145.825
QB50P1 02 Mar 10:43:21 10:47:37 65° 257° (WSW) 10:51:54 145.935-145.965
SEEDS 02 Mar 10:43:32 10:47:25 36° 295° (WNW) 10:51:17 437.485
TIGRISAT 02 Mar 10:43:42 10:47:53 42° 262° (W) 10:52:01 435.000
CANX-2 02 Mar 10:46:10 10:49:53 29° 298° (WNW) 10:53:32 2200.000
FUNcube-1 02 Mar 10:46:50 10:50:59 62° 102° (ESE) 10:55:06 145.935
QB50P2 02 Mar 10:47:04 10:51:19 60° 258° (WSW) 10:55:35 145.880/145.840
ZACube-1 02 Mar 10:47:54 10:52:04 64° 102° (ESE) 10:56:11 437.345
ESTCUBE 1 02 Mar 10:51:32 10:54:49 19° 88° (E) 10:58:10 437.505/2401.250
AO-7 02 Mar 10:53:05 10:57:32 16° 7° (N) 11:02:00 29.400- 29.500
HO-68 02 Mar 10:53:13 11:00:13 55° 300° (WNW) 11:07:09 435.675
HUMSAT D 02 Mar 10:54:49 10:58:46 43° 98° (E) 11:02:43 437.325/437.525
BUGSAT 1 02 Mar 10:56:05 11:00:22 64° 258° (WSW) 11:04:38 437.445
UKube-1 02 Mar 10:56:36 11:00:59 67° 103° (ESE) 11:05:18 .
50 SAT 02 Mar 10:56:44 11:00:20 33° 96° (E) 11:03:58 437.505
ANTELSAT 02 Mar 10:57:23 11:01:22 32° 265° (W) 11:05:15 437.575/2403.000
GONETS M04 02 Mar 11:01:14 11:08:52 35° 278° (W) 11:16:22
DUCHIFAT 1 02 Mar 11:02:46 11:06:54 45° 261° (W) 11:11:02 145.980
Oscar 19 02 Mar 11:04:37 11:08:05 19° 50° (NE) 11:11:39 437.125/150
CUTE 1.7 + AOD 2 02 Mar 11:05:04 11:08:28 23° 301° (WNW) 11:11:47 437.475
ITAMSAT 1 02 Mar 11:05:19 11:06:10 10° 38° (NE) 11:07:12 435.822/435.867
UWE-3 02 Mar 11:06:07 11:10:18 76° 288° (WNW) 11:14:27 435.000/436.395/437.385
DOVE 4 02 Mar 11:08:28 11:12:15 28° 300° (WNW) 11:15:51 437.250
O/OREOS (USA 219) 02 Mar 11:11:59 11:16:31 58° 308° (NW) 11:21:06 437.305
SO-50 02 Mar 11:17:28 11:21:35 26° 240° (WSW) 11:25:40 436.795
CINEMA 3 02 Mar 11:19:34 11:23:27 33° 296° (WNW) 11:27:11 145.822/145.860
POLYITAN 1 02 Mar 11:22:58 11:26:48 30° 266° (W) 11:30:36 437.675
POPSAT HIP 1 02 Mar 11:23:43 11:27:32 30° 266° (W) 11:31:20 437.405
DELFI C3 02 Mar 11:25:04 11:28:57 41° 294° (WNW) 11:32:48 145.870
DANDE 02 Mar 11:31:32 11:34:32 62° 259° (W) 11:37:09 436.750
Oscar 11 02 Mar 11:39:31 11:43:18 30° 298° (WNW) 11:47:04 145.826/435.025
CUBEBUG 2 02 Mar 11:43:04 11:46:51 33° 297° (WNW) 11:50:33 437.445
NANOSAT C BR1 02 Mar 11:47:58 11:51:10 20° 271° (W) 11:54:18 145.865
AAUSAT CUBESAT 2 02 Mar 11:51:11 11:53:39 15° 306° (NW) 11:56:01 437.432
COMPASS 1 02 Mar 11:53:42 11:55:50 14° 308° (NW) 11:57:52 437.405
UNISAT 6 02 Mar 11:58:46 12:00:09 11° 278° (W) 12:01:20 437.425
DX 1 02 Mar 12:02:53 12:06:54 35° 297° (WNW) 12:10:52 434.975-435.025
AISAT 02 Mar 12:03:59 12:08:27 65° 290° (WNW) 12:12:51 437.250
CUSAT 1 02 Mar 12:04:25 12:06:24 17° 268° (W) 12:08:13 437.405
CUBEBUG 1 02 Mar 12:08:49 12:13:17 75° 103° (ESE) 12:17:43 437.445
Gurwin Techsat 1B 02 Mar 12:10:59 12:14:45 20° 50° (NE) 12:18:37 435.225
ISS 02 Mar 12:13:26 12:16:28 37° 173° (S) 12:19:30 145.825
VELOX 1 02 Mar 12:13:45 12:18:09 56° 292° (WNW) 12:22:31 145.980
QB50P1 02 Mar 12:23:32 12:24:28 10° 279° (W) 12:25:12 145.935-145.965
FUNcube-1 02 Mar 12:23:47 12:27:02 22° 301° (WNW) 12:30:12 145.935
ZACube-1 02 Mar 12:24:55 12:28:07 21° 302° (WNW) 12:31:16 437.345
ESTCUBE 1 02 Mar 12:27:40 12:32:15 74° 289° (WNW) 12:36:49 437.505/2401.250
HUMSAT D 02 Mar 12:30:52 12:34:26 28° 298° (WNW) 12:37:58 437.325/437.525
50 SAT 02 Mar 12:31:47 12:35:23 34° 296° (WNW) 12:38:57 437.505
UKube-1 02 Mar 12:33:21 12:36:48 23° 303° (WNW) 12:40:10 .
BUGSAT 1 02 Mar 12:36:08 12:36:49 10° 279° (W) 12:37:18 437.445
ITAMSAT 1 02 Mar 12:39:40 12:44:22 36° 60° (ENE) 12:49:08 435.822/435.867
AO-7 02 Mar 12:41:16 12:47:37 26° 34° (NE) 12:54:05 29.400- 29.500
HO-68 02 Mar 12:41:38 12:46:39 21° 323° (NW) 12:51:32 435.675
Oscar 19 02 Mar 12:41:38 12:46:45 76° 72° (ENE) 12:51:56 437.125/150
SPROUT 02 Mar 12:42:35 12:46:48 49° 99° (E) 12:50:59 437.525
UWE-3 02 Mar 12:43:55 12:46:14 14° 308° (NW) 12:48:26 435.000/436.395/437.385
TISAT 1 02 Mar 12:47:53 12:52:02 50° 100° (E) 12:56:09 437.305
ITUPSAT 1 02 Mar 12:51:26 12:53:50 14° 83° (E) 12:56:26 437.325
O/OREOS (USA 219) 02 Mar 12:53:44 12:56:57 18° 331° (NNW) 13:00:08 437.305
JAS-2 02 Mar 13:32:52 13:36:36 18° 39° (NE) 13:40:45 435.910
AISAT 02 Mar 13:41:53 13:44:20 14° 310° (NW) 13:46:38 437.250
CUBEBUG 1 02 Mar 13:45:53 13:49:15 21° 304° (NW) 13:52:32 437.445
Gurwin Techsat 1B 02 Mar 13:48:44 13:54:04 80° 72° (ENE) 13:59:26 435.225
ISS 02 Mar 13:49:33 13:52:31 34° 192° (SSW) 13:55:30 145.825
HORYU 2 02 Mar 13:49:47 13:53:37 29° 60° (ENE) 13:57:29 437.375
VELOX 1 02 Mar 13:51:54 13:53:55 13° 312° (NW) 13:55:47 145.980
SWISSCUBE 02 Mar 13:52:01 13:56:37 43° 98° (E) 14:01:13 437.505
BEESAT 02 Mar 14:00:41 14:05:21 47° 99° (E) 14:10:00 436.000
ESTCUBE 1 02 Mar 14:05:38 14:08:28 16° 309° (NW) 14:11:12 437.505/2401.250
YUBILEINY 02 Mar 14:15:20 14:19:01 14° 65° (ENE) 14:23:09 435.215
KKS-1 02 Mar 14:17:35 14:20:35 18° 87° (E) 14:23:42 437.445
ITAMSAT 1 02 Mar 14:18:40 14:23:46 51° 260° (W) 14:28:54 435.822/435.867
SPROUT 02 Mar 14:19:01 14:22:43 28° 299° (WNW) 14:26:21 437.525
Oscar 19 02 Mar 14:22:45 14:26:45 22° 272° (W) 14:30:39 437.125/150
TISAT 1 02 Mar 14:24:03 14:27:40 27° 300° (WNW) 14:31:13 437.305
STARS 02 Mar 14:25:03 14:27:26 15° 85° (E) 14:29:58 437.465
ITUPSAT 1 02 Mar 14:27:50 14:32:42 75° 105° (ESE) 14:37:32 437.325
HO-68 02 Mar 14:30:12 14:31:47 11° 349° (N) 14:33:18 435.675
AO-7 02 Mar 14:30:56 14:39:05 62° 58° (ENE) 14:47:16 29.400- 29.500
O/OREOS (USA 219) 02 Mar 14:37:05 14:38:16 11° 357° (N) 14:39:26 437.305
JAS-2 02 Mar 15:14:48 15:20:21 55° 64° (ENE) 15:26:42 435.910
HORYU 2 02 Mar 15:25:49 15:30:08 49° 260° (W) 15:34:28 437.375
ISS 02 Mar 15:26:25 15:28:21 15° 211° (SSW) 15:30:13 145.825
SWISSCUBE 02 Mar 15:30:02 15:34:29 37° 298° (WNW) 15:38:53 437.505
Gurwin Techsat 1B 02 Mar 15:30:37 15:34:44 22° 273° (W) 15:38:46 435.225
BEESAT 02 Mar 15:38:47 15:43:08 34° 299° (WNW) 15:47:26 436.000
KKS-1 02 Mar 15:53:21 15:57:50 77° 288° (WNW) 16:02:16 437.445
STARS 02 Mar 16:00:13 16:04:39 87° 100° (E) 16:09:04 437.465
Cubesat XI-IV 02 Mar 16:05:24 16:09:35 24° 53° (NE) 16:13:52 437.490
YUBILEINY 02 Mar 16:05:30 16:13:46 50° 89° (E) 16:22:10 435.215
ITUPSAT 1 02 Mar 16:06:20 16:10:11 24° 305° (NW) 16:13:58 437.325
HO-68 02 Mar 16:14:06 16:16:27 12° 17° (NNE) 16:18:55 435.675
CUTE-I 02 Mar 16:14:11 16:18:33 27° 55° (NE) 16:23:01 437.470
O/OREOS (USA 219) 02 Mar 16:17:05 16:19:42 15° 22° (NNE) 16:22:22 437.305
AIST 1 02 Mar 16:24:16 16:25:18 11° 49° (NE) 16:26:30
AO-7 02 Mar 16:24:17 16:32:17 46° 262° (W) 16:40:13 29.400- 29.500
M-CUBED/EXP-1 PRIME 02 Mar 16:41:33 16:45:01 26° 101° (E) 16:48:44 437.505
AUBIESAT-1 02 Mar 16:43:42 16:47:07 25° 100° (E) 16:50:47 437.475
JAS-2 02 Mar 17:00:35 17:05:51 37° 269° (W) 17:11:42 435.910
MOZHAYETS 4 02 Mar 17:03:12 17:07:36 41° 97° (E) 17:12:01
BEESAT 2 02 Mar 17:15:19 17:17:15 13° 114° (ESE) 17:19:19 435.950
KKS-1 02 Mar 17:31:05 17:33:52 16° 308° (NW) 17:36:32 437.445
STARS 02 Mar 17:37:33 17:40:38 19° 306° (NW) 17:43:37 437.465
Cubesat XI-IV 02 Mar 17:43:46 17:49:10 86° 252° (WSW) 17:54:38 437.490
CUTE-I 02 Mar 17:52:50 17:58:13 76° 254° (WSW) 18:03:40 437.470
O/OREOS (USA 219) 02 Mar 17:56:03 18:00:25 39° 46° (NE) 18:04:46 437.305
HO-68 02 Mar 17:56:21 18:01:51 25° 42° (NE) 18:07:28 435.675
AIST 1 02 Mar 17:59:47 18:04:09 53° 72° (ENE) 18:08:29
YUBILEINY 02 Mar 18:02:05 18:10:40 55° 293° (WNW) 18:19:19 435.215
PRISM 02 Mar 18:12:58 18:16:02 20° 89° (E) 18:19:12 437.425
M-CUBED/EXP-1 PRIME 02 Mar 18:16:12 18:20:09 53° 298° (WNW) 18:24:24 437.505
AUBIESAT-1 02 Mar 18:18:15 18:22:13 55° 298° (WNW) 18:26:31 437.475
AO-7 02 Mar 18:24:48 18:27:44 12° 287° (WNW) 18:30:07 29.400- 29.500
BEESAT 3 02 Mar 18:25:19 18:29:18 48° 129° (SE) 18:33:21 437.485
BRITE-PL 02 Mar 18:25:48 18:30:05 24° 56° (ENE) 18:34:15 437.365/2234.400
GOMX 1 02 Mar 18:31:51 18:35:25 20° 54° (NE) 18:38:58 467.674
SEEDS 02 Mar 18:34:14 18:36:03 13° 51° (NE) 18:38:01 437.485
CANX-2 02 Mar 18:36:30 18:39:01 16° 54° (NE) 18:41:39 2200.000
MOZHAYETS 4 02 Mar 18:40:35 18:44:49 36° 297° (WNW) 18:49:02
AIST 2 02 Mar 18:47:55 18:51:47 33° 124° (SE) 18:55:42 435.215
BEESAT 2 02 Mar 18:50:36 18:54:44 67° 133° (SE) 18:58:55 435.950
CUTE 1.7 + AOD 2 02 Mar 18:54:28 18:57:30 20° 57° (ENE) 19:00:38 437.475
CUBESAT XI-V 02 Mar 19:01:47 19:06:26 52° 99° (E) 19:11:04 437.345
STRAND 1 02 Mar 19:05:40 19:10:27 37° 96° (E) 19:15:15 437.568
DOVE 4 02 Mar 19:06:32 19:10:26 24° 58° (ENE) 19:14:16 437.250
CINEMA 3 02 Mar 19:15:59 19:18:58 18° 55° (NE) 19:21:59 145.822/145.860
Cubesat XI-IV 02 Mar 19:26:25 19:30:10 18° 275° (W) 19:33:46 437.490
Oscar 11 02 Mar 19:30:56 19:33:43 17° 54° (NE) 19:36:35 145.826/435.025
O/OREOS (USA 219) 02 Mar 19:35:33 19:39:57 43° 247° (WSW) 19:44:16 437.305
CUTE-I 02 Mar 19:35:59 19:39:20 16° 277° (W) 19:42:30 437.470
CUBEBUG 2 02 Mar 19:37:18 19:39:55 16° 54° (NE) 19:42:36 437.445
AAUSAT CUBESAT 2 02 Mar 19:37:48 19:41:22 29° 62° (ENE) 19:45:00 437.432
AIST 1 02 Mar 19:37:58 19:41:35 24° 272° (W) 19:45:05
COMPASS 1 02 Mar 19:40:10 19:43:53 33° 64° (ENE) 19:47:40 437.405
HO-68 02 Mar 19:41:32 19:48:37 72° 65° (ENE) 19:55:48 435.675
PRISM 02 Mar 19:47:47 19:52:00 66° 290° (WNW) 19:56:12 437.425
M-CUBED/EXP-1 PRIME 02 Mar 19:52:42 19:54:27 12° 316° (NW) 19:56:09 437.505
AUBIESAT-1 02 Mar 19:54:34 19:56:28 13° 316° (NW) 19:58:20 437.475
DX 1 02 Mar 19:55:05 19:57:57 18° 53° (NE) 20:00:55 434.975-435.025
PCSat 02 Mar 19:58:24 20:00:15 12° 104° (ESE) 20:02:23 145.827
AISAT 02 Mar 20:00:13 20:01:30 11° 46° (NE) 20:02:55 437.250
BRITE-PL 02 Mar 20:02:32 20:08:08 84° 253° (WSW) 20:13:28 437.365/2234.400
BEESAT 3 02 Mar 20:03:30 20:07:29 43° 330° (NNW) 20:11:30 437.485
YUBILEINY 02 Mar 20:03:49 20:10:04 20° 322° (NW) 20:16:07 435.215
SEEDS 02 Mar 20:07:01 20:11:10 64° 71° (ENE) 20:15:20 437.485
GOMX 1 02 Mar 20:07:41 20:13:01 81° 72° (ENE) 20:18:02 467.674
VELOX 1 02 Mar 20:09:04 20:10:55 13° 48° (NE) 20:12:54 145.980
CANX-2 02 Mar 20:10:10 20:14:24 84° 76° (ENE) 20:18:39 2200.000
FUNcube-1 02 Mar 20:15:00 20:18:16 22° 58° (ENE) 20:21:33 145.935
ZACube-1 02 Mar 20:16:10 20:19:30 22° 59° (ENE) 20:22:50 437.345
50 SAT 02 Mar 20:18:59 20:20:06 11° 51° (NE) 20:21:21 437.505
HUMSAT D 02 Mar 20:20:29 20:22:54 15° 54° (NE) 20:25:25 437.325/437.525
GONETS M04 02 Mar 20:21:51 20:27:10 19° 70° (ENE) 20:32:50
UKube-1 02 Mar 20:23:43 20:27:19 26° 59° (ENE) 20:30:59 .
AIST 2 02 Mar 20:26:00 20:30:15 58° 325° (NW) 20:34:32 435.215
ESTCUBE 1 02 Mar 20:26:02 20:26:37 10° 44° (NE) 20:27:22 437.505/2401.250
CUTE 1.7 + AOD 2 02 Mar 20:28:49 20:33:02 73° 256° (WSW) 20:37:17 437.475
BEESAT 2 02 Mar 20:29:17 20:33:11 36° 335° (NNW) 20:37:07 435.950
UWE-3 02 Mar 20:34:35 20:38:33 35° 64° (ENE) 20:42:28 435.000/436.395/437.385
CUBESAT XI-V 02 Mar 20:39:34 20:43:43 30° 299° (WNW) 20:47:47 437.345
DOVE 4 02 Mar 20:42:48 20:47:53 73° 257° (WSW) 20:52:41 437.250
STRAND 1 02 Mar 20:44:52 20:49:49 46° 296° (WNW) 20:54:42 437.568
DELFI C3 02 Mar 20:45:06 20:49:00 49° 68° (ENE) 20:52:58 145.870
CINEMA 3 02 Mar 20:50:57 20:55:40 84° 74° (ENE) 21:00:12 145.822/145.860
Oscar 11 02 Mar 21:05:02 21:09:21 89° 88° (E) 21:13:43 145.826/435.025
CUBEBUG 2 02 Mar 21:11:36 21:16:04 80° 73° (ENE) 21:20:25 437.445
AAUSAT CUBESAT 2 02 Mar 21:12:56 21:16:54 43° 262° (W) 21:20:55 437.432
COMPASS 1 02 Mar 21:15:42 21:19:35 37° 263° (W) 21:23:30 437.405
PRISM 02 Mar 21:24:39 21:26:48 14° 310° (NW) 21:28:52 437.425
DX 1 02 Mar 21:29:14 21:33:39 86° 72° (ENE) 21:38:07 434.975-435.025
HO-68 02 Mar 21:30:36 21:37:01 33° 268° (W) 21:43:22 435.675
AISAT 02 Mar 21:32:52 21:37:11 47° 66° (ENE) 21:41:32 437.250
CUBEBUG 1 02 Mar 21:36:52 21:40:38 28° 60° (ENE) 21:44:27 437.445
PCSat 02 Mar 21:37:23 21:42:38 54° 124° (SE) 21:47:58 145.827
VELOX 1 02 Mar 21:42:17 21:46:40 55° 68° (ENE) 21:51:05 145.980
BEESAT 3 02 Mar 21:43:01 21:46:27 24° 353° (N) 21:49:53 437.485
BRITE-PL 02 Mar 21:43:33 21:47:26 19° 275° (W) 21:51:02 437.365/2234.400
SEEDS 02 Mar 21:44:20 21:47:27 19° 271° (W) 21:50:29 437.485
GOMX 1 02 Mar 21:47:44 21:51:43 21° 273° (W) 21:55:27 467.674
CANX-2 02 Mar 21:48:25 21:51:00 15° 274° (W) 21:53:28 2200.000
FUNcube-1 02 Mar 21:49:58 21:54:18 66° 257° (WSW) 21:58:32 145.935
50 SAT 02 Mar 21:50:28 21:54:22 58° 71° (ENE) 21:58:18 437.505
ZACube-1 02 Mar 21:51:15 21:55:35 64° 258° (WSW) 21:59:49 437.345
HUMSAT D 02 Mar 21:53:56 21:58:08 83° 75° (ENE) 22:02:19 437.325/437.525
ESTCUBE 1 02 Mar 21:58:13 22:02:29 42° 65° (ENE) 22:06:49 437.505/2401.250
UKube-1 02 Mar 21:58:56 22:03:14 56° 258° (WSW) 22:07:34 .
UNISAT 6 02 Mar 22:03:33 22:05:57 15° 85° (E) 22:08:29 437.425
AIST 2 02 Mar 22:05:53 22:09:36 27° 348° (NNW) 22:13:18 435.215
CUTE 1.7 + AOD 2 02 Mar 22:08:21 22:09:51 11° 278° (W) 22:11:11 437.475
BEESAT 2 02 Mar 22:08:55 22:12:21 23° 358° (N) 22:15:47 435.950
YUBILEINY 02 Mar 22:09:38 22:11:38 11° 355° (N) 22:13:35 435.215
SPROUT 02 Mar 22:09:42 22:12:41 19° 55° (NE) 22:15:45 437.525
UWE-3 02 Mar 22:10:59 22:15:07 37° 264° (W) 22:19:08 435.000/436.395/437.385
TISAT 1 02 Mar 22:13:22 22:16:18 19° 55° (NE) 22:19:20 437.305
GONETS M04 02 Mar 22:13:55 22:22:26 65° 94° (E) 22:31:02
DELFI C3 02 Mar 22:21:10 22:24:29 24° 268° (W) 22:27:48 145.870
QB50P1 02 Mar 22:22:35 22:24:35 13° 84° (E) 22:26:45 145.935-145.965
DOVE 4 02 Mar 22:23:49 22:26:30 14° 277° (W) 22:28:57 437.250
STRAND 1 02 Mar 22:25:39 22:27:56 13° 317° (NW) 22:30:05 437.568
QB50P2 02 Mar 22:26:13 22:28:32 15° 85° (E) 22:30:59 145.880/145.840
TIGRISAT 02 Mar 22:27:58 22:31:21 23° 91° (E) 22:34:49 435.000
CINEMA 3 02 Mar 22:30:21 22:33:30 17° 273° (W) 22:36:27 145.822/145.860
BUGSAT 1 02 Mar 22:32:44 22:34:29 13° 83° (E) 22:36:23 437.445
DUCHIFAT 1 02 Mar 22:40:48 22:43:46 19° 88° (E) 22:46:48 145.980
ANTELSAT 02 Mar 22:41:23 22:45:11 30° 94° (E) 22:49:01 437.575/2403.000
Oscar 11 02 Mar 22:43:43 22:46:15 15° 275° (W) 22:48:40 145.826/435.025
CUBEBUG 2 02 Mar 22:50:24 22:53:22 17° 273° (W) 22:56:10 437.445
RS-15 02 Mar 22:57:54 23:06:54 33° 108° (ESE) 23:16:17 29.354- 29.394
POLYITAN 1 02 Mar 23:00:44 23:04:23 28° 93° (E) 23:08:04 437.675
POPSAT HIP 1 02 Mar 23:01:12 23:04:51 28° 93° (E) 23:08:31 437.405
DX 1 02 Mar 23:07:48 23:10:35 16° 274° (W) 23:13:15 434.975-435.025
DANDE 02 Mar 23:09:44 23:12:54 15° 89° (E) 23:15:50 436.750
AISAT 02 Mar 23:10:02 23:14:01 29° 266° (W) 23:17:58 437.250
CUBEBUG 1 02 Mar 23:12:25 23:16:48 53° 260° (W) 23:21:12 437.445
VELOX 1 02 Mar 23:19:47 23:23:34 25° 268° (W) 23:27:19 145.980
PCSat 02 Mar 23:20:58 23:26:14 47° 326° (NW) 23:31:31 145.827
BEESAT 3 02 Mar 23:21:58 23:25:37 28° 17° (NNE) 23:29:16 437.485
NANOSAT C BR1 02 Mar 23:24:08 23:28:12 43° 98° (E) 23:32:15 145.865
50 SAT 02 Mar 23:26:46 23:29:46 20° 270° (W) 23:32:41 437.505
SWISSCUBE 02 Mar 23:29:42 23:33:25 23° 55° (NE) 23:37:13 437.505
FUNcube-1 02 Mar 23:30:34 23:31:34 11° 278° (W) 23:32:22 145.935
HUMSAT D 02 Mar 23:32:00 23:34:33 15° 274° (W) 23:36:58 437.325/437.525
ZACube-1 02 Mar 23:32:21 23:32:55 10° 279° (W) 23:33:16 437.345
ESTCUBE 1 02 Mar 23:35:21 23:39:29 33° 265° (W) 23:43:38 437.505/2401.250
CUSAT 1 02 Mar 23:37:17 23:41:47 26° 95° (E) 23:45:26 437.405
BEESAT 02 Mar 23:38:09 23:41:58 25° 56° (ENE) 23:45:53 436.000
UNISAT 6 02 Mar 23:39:08 23:43:27 88° 279° (W) 23:47:46 437.425
SPROUT 02 Mar 23:43:56 23:48:17 84° 252° (WSW) 23:52:40 437.525
AIST 2 02 Mar 23:45:37 23:49:18 26° 11° (NNE) 23:52:59 435.215
TISAT 1 02 Mar 23:47:21 23:51:39 83° 254° (WSW) 23:55:58 437.305
BEESAT 2 02 Mar 23:47:44 23:51:33 32° 21° (NNE) 23:55:21 435.950
QB50P1 02 Mar 23:56:58 00:01:15 84° 105° (ESE) 00:05:29 145.935-145.965
QB50P2 03 Mar 00:00:52 00:05:09 89° 287° (WNW) 00:09:24 145.880/145.840
TIGRISAT 03 Mar 00:04:16 00:08:29 56° 291° (WNW) 00:12:41 435.000
ITUPSAT 1 03 Mar 00:04:56 00:09:17 36° 62° (ENE) 00:13:43 437.325
BUGSAT 1 03 Mar 00:06:33 00:10:47 81° 105° (ESE) 00:14:56 437.445
YUBILEINY 03 Mar 00:08:41 00:13:34 16° 29° (NNE) 00:18:41 435.215
GONETS M04 03 Mar 00:11:41 00:19:53 43° 299° (WNW) 00:28:04
DUCHIFAT 1 03 Mar 00:15:53 00:20:07 69° 289° (WNW) 00:24:18 145.980
ANTELSAT 03 Mar 00:18:04 00:22:09 42° 294° (WNW) 00:26:13 437.575/2403.000
POLYITAN 1 03 Mar 00:36:27 00:40:32 45° 294° (WNW) 00:44:34 437.675
POPSAT HIP 1 03 Mar 00:36:52 00:40:57 45° 293° (WNW) 00:44:59 437.405
Oscar 19 03 Mar 00:46:36 00:49:35 16° 84° (E) 00:52:44 437.125/150
DANDE 03 Mar 00:49:48 00:55:59 79° 104° (ESE) 01:00:32 436.750
BEESAT 3 03 Mar 01:00:06 01:04:17 74° 38° (NE) 01:08:26 437.485
NANOSAT C BR1 03 Mar 01:00:14 01:03:59 30° 298° (WNW) 01:07:40 145.865
SWISSCUBE 03 Mar 01:06:03 01:10:52 76° 255° (WSW) 01:15:43 437.505
PCSat 03 Mar 01:06:17 01:10:51 26° 351° (N) 01:15:25 145.827
RS-15 03 Mar 01:07:01 01:17:56 84° 134° (SE) 01:29:12 29.354- 29.394
BEESAT 03 Mar 01:14:42 01:19:29 70° 256° (WSW) 01:24:18 436.000
UNISAT 6 03 Mar 01:16:56 01:19:44 17° 306° (NW) 01:22:26 437.425
CUSAT 1 03 Mar 01:19:08 01:24:35 53° 288° (WNW) 01:28:38 437.405
KKS-1 03 Mar 01:22:38 01:26:49 40° 64° (ENE) 01:31:02 437.445
SPROUT 03 Mar 01:22:50 01:25:10 14° 276° (W) 01:27:21 437.525
AIST 2 03 Mar 01:24:24 01:28:41 56° 34° (NE) 01:32:53 435.215
BEESAT 2 03 Mar 01:25:56 01:30:09 84° 224° (SW) 01:34:19 435.950
TISAT 1 03 Mar 01:26:00 01:28:14 13° 276° (W) 01:30:18 437.305
STARS 03 Mar 01:28:44 01:32:41 33° 62° (ENE) 01:36:40 437.465
QB50P1 03 Mar 01:33:42 01:36:40 18° 305° (NW) 01:39:30 145.935-145.965
QB50P2 03 Mar 01:37:45 01:40:32 17° 306° (NW) 01:43:14 145.880/145.840
SO-50 03 Mar 01:39:27 01:42:42 19° 116° (ESE) 01:46:08 436.795
ITUPSAT 1 03 Mar 01:42:35 01:47:11 43° 262° (W) 01:51:47 437.325
TIGRISAT 03 Mar 01:42:50 01:44:27 12° 311° (NW) 01:45:55 435.000
BUGSAT 1 03 Mar 01:42:51 01:45:48 18° 305° (NW) 01:48:39 437.445
DUCHIFAT 1 03 Mar 01:53:04 01:55:16 14° 309° (NW) 01:57:22 145.980
Gurwin Techsat 1B 03 Mar 01:58:00 02:01:39 19° 85° (E) 02:05:26 435.225
M-CUBED/EXP-1 PRIME 03 Mar 02:04:37 02:06:54 17° 48° (NE) 02:09:21 437.505
YUBILEINY 03 Mar 02:05:30 02:13:41 40° 59° (ENE) 02:21:56 435.215
AUBIESAT-1 03 Mar 02:06:27 02:08:39 17° 48° (NE) 02:11:02 437.475
GONETS M04 03 Mar 02:14:39 02:19:51 16° 329° (NNW) 02:24:49
ITAMSAT 1 03 Mar 02:23:45 02:28:29 34° 94° (E) 02:33:14 435.822/435.867
Oscar 19 03 Mar 02:24:43 02:29:53 79° 105° (ESE) 02:35:02 437.125/150
AO-7 03 Mar 02:28:21 02:28:36 10° 71° (ENE) 02:29:28 29.400- 29.500
DANDE 03 Mar 02:35:18 02:39:38 21° 299° (WNW) 02:43:05 436.750
MOZHAYETS 4 03 Mar 02:37:16 02:40:22 19° 54° (NE) 02:43:34
BEESAT 3 03 Mar 02:38:40 02:42:02 24° 240° (WSW) 02:45:19 437.485
SWISSCUBE 03 Mar 02:47:03 02:49:40 14° 277° (W) 02:52:07 437.505
PCSat 03 Mar 02:51:05 02:55:49 29° 16° (NNE) 03:00:32 145.827
BEESAT 03 Mar 02:56:06 02:58:20 13° 278° (W) 03:00:23 436.000
KKS-1 03 Mar 02:59:26 03:03:34 34° 265° (W) 03:07:40 437.445
AIST 2 03 Mar 03:03:14 03:07:10 35° 235° (SW) 03:11:02 435.215
STARS 03 Mar 03:04:52 03:09:06 42° 262° (W) 03:13:20 437.465
BEESAT 2 03 Mar 03:04:59 03:07:47 17° 243° (WSW) 03:10:29 435.950
CUSAT 1 03 Mar 03:07:22 03:08:08 10° 307° (NW) 03:08:42 437.405
HORYU 2 03 Mar 03:10:03 03:13:18 20° 89° (E) 03:16:38 437.375
SO-50 03 Mar 03:17:56 03:22:39 82° 136° (SE) 03:27:31 436.795
RS-15 03 Mar 03:20:25 03:31:16 58° 344° (NNW) 03:42:31 29.354- 29.394
Gurwin Techsat 1B 03 Mar 03:37:06 03:42:28 89° 96° (E) 03:47:50 435.225
M-CUBED/EXP-1 PRIME 03 Mar 03:38:06 03:41:27 71° 249° (WSW) 03:45:03 437.505
AUBIESAT-1 03 Mar 03:39:44 03:43:07 76° 249° (WSW) 03:46:43 437.475
JAS-2 03 Mar 03:59:30 04:05:47 31° 89° (E) 04:12:34 435.910
YUBILEINY 03 Mar 04:02:29 04:11:17 71° 264° (W) 04:20:02 435.215
ITAMSAT 1 03 Mar 04:03:08 04:08:14 51° 295° (WNW) 04:13:16 435.822/435.867
Oscar 19 03 Mar 04:04:42 04:08:49 24° 305° (NW) 04:12:49 437.125/150
MOZHAYETS 4 03 Mar 04:12:28 04:17:03 89° 73° (ENE) 04:21:41
AO-7 03 Mar 04:16:29 04:24:16 43° 97° (E) 04:32:04 29.400- 29.500
GONETS M04 03 Mar 04:20:16 04:21:42 10° 3° (N) 04:23:10
PCSat 03 Mar 04:34:46 04:40:12 63° 40° (NE) 04:45:36 145.827
CUBESAT XI-V 03 Mar 04:36:33 04:40:13 23° 57° (ENE) 04:43:58 437.345
HORYU 2 03 Mar 04:46:02 04:50:29 70° 290° (WNW) 04:54:54 437.375
STRAND 1 03 Mar 04:51:20 04:55:27 25° 55° (NE) 04:59:39 437.568
SO-50 03 Mar 04:59:10 05:03:39 38° 339° (NNW) 05:08:14 436.795
PRISM 03 Mar 05:10:18 05:14:10 39° 64° (ENE) 05:18:07 437.425
Gurwin Techsat 1B 03 Mar 05:17:47 05:21:55 23° 308° (NW) 05:25:57 435.225
RS-15 03 Mar 05:34:43 05:45:42 59° 17° (NNE) 05:57:11 29.354- 29.394
ITAMSAT 1 03 Mar 05:44:00 05:46:44 14° 316° (NW) 05:49:20 435.822/435.867
JAS-2 03 Mar 05:44:20 05:51:31 81° 289° (WNW) 05:59:19 435.910
MOZHAYETS 4 03 Mar 05:52:06 05:55:01 16° 275° (W) 05:57:50
Cubesat XI-IV 03 Mar 05:53:55 05:58:04 23° 88° (E) 06:02:18 437.490
YUBILEINY 03 Mar 06:00:28 06:06:41 21° 288° (WNW) 06:12:33 435.215
CUTE-I 03 Mar 06:02:38 06:07:02 26° 90° (E) 06:11:30 437.470
AO-7 03 Mar 06:09:22 06:17:36 66° 300° (WNW) 06:25:44 29.400- 29.500
CUBESAT XI-V 03 Mar 06:12:34 06:17:16 73° 257° (WSW) 06:22:02 437.345
GONETS M04 03 Mar 06:17:40 06:23:22 19° 36° (NE) 06:29:18
PCSat 03 Mar 06:18:28 06:23:27 37° 242° (WSW) 06:28:22 145.827
HORYU 2 03 Mar 06:23:54 06:26:27 15° 310° (NW) 06:28:55 437.375
STRAND 1 03 Mar 06:29:04 06:34:14 77° 255° (WSW) 06:39:27 437.568
AIST 1 03 Mar 06:38:11 06:41:26 21° 86° (E) 06:44:48
SO-50 03 Mar 06:41:01 06:45:16 29° 3° (N) 06:49:36 436.795
PRISM 03 Mar 06:45:59 06:49:46 32° 265° (W) 06:53:33 437.425
JAS-2 03 Mar 07:30:01 07:35:52 28° 310° (NW) 07:41:59 435.910
Cubesat XI-IV 03 Mar 07:33:25 07:38:50 79° 290° (WNW) 07:44:13 437.490
CUTE-I 03 Mar 07:42:18 07:47:40 70° 292° (WNW) 07:53:00 437.470
RS-15 03 Mar 07:47:47 07:59:04 83° 225° (SW) 08:10:53 29.354- 29.394
CUBESAT XI-V 03 Mar 07:53:20 07:55:41 13° 278° (W) 07:57:50 437.345
TIGRISAT 03 Mar 08:01:03 08:02:09 11° 48° (NE) 08:03:23 435.000
BRITE-PL 03 Mar 08:01:15 08:04:25 18° 84° (E) 08:07:33 437.365/2234.400
AO-7 03 Mar 08:02:34 08:09:10 27° 324° (NW) 08:15:38 29.400- 29.500
GOMX 1 03 Mar 08:04:01 08:06:01 13° 81° (E) 08:08:10 467.674
CUTE 1.7 + AOD 2 03 Mar 08:08:08 08:10:00 13° 83° (E) 08:12:03 437.475
STRAND 1 03 Mar 08:11:18 08:14:25 15° 277° (W) 08:17:21 437.568
ANTELSAT 03 Mar 08:13:45 08:15:53 14° 51° (NE) 08:18:07 437.575/2403.000
AIST 1 03 Mar 08:14:25 08:18:45 61° 286° (WNW) 08:23:09
GONETS M04 03 Mar 08:14:26 08:22:54 51° 65° (ENE) 08:31:26
SO-50 03 Mar 08:22:05 08:26:49 46° 27° (NNE) 08:31:36 436.795
POLYITAN 1 03 Mar 08:28:24 08:29:57 12° 49° (NE) 08:31:39 437.675
POPSAT HIP 1 03 Mar 08:28:40 08:30:11 12° 49° (NE) 08:31:50 437.405
DOVE 4 03 Mar 08:35:36 08:38:27 17° 86° (E) 08:41:20 437.250
CINEMA 3 03 Mar 08:40:40 08:41:46 11° 81° (E) 08:43:02 145.822/145.860
Oscar 11 03 Mar 08:47:21 08:48:09 11° 81° (E) 08:49:09 145.826/435.025
HO-68 03 Mar 08:48:34 08:55:09 37° 94° (E) 09:01:46 435.675
AAUSAT CUBESAT 2 03 Mar 08:49:03 08:52:04 19° 89° (E) 08:55:09 437.432
NANOSAT C BR1 03 Mar 08:50:14 08:52:54 17° 54° (NE) 08:55:39 145.865
COMPASS 1 03 Mar 08:51:55 08:55:14 22° 90° (E) 08:58:36 437.405
UNISAT 6 03 Mar 09:09:27 09:13:20 33° 63° (ENE) 09:17:14 437.425
Cubesat XI-IV 03 Mar 09:14:21 09:18:16 20° 310° (NW) 09:22:04 437.490
JAS-2 03 Mar 09:16:50 09:18:52 11° 333° (NNW) 09:20:46 435.910
SEEDS 03 Mar 09:19:47 09:23:51 44° 98° (E) 09:27:56 437.485
QB50P1 03 Mar 09:22:02 09:25:39 27° 61° (ENE) 09:29:19 145.935-145.965
CUTE-I 03 Mar 09:23:19 09:26:58 18° 312° (NW) 09:30:30 437.470
CANX-2 03 Mar 09:23:56 09:28:09 60° 101° (E) 09:32:23 2200.000
QB50P2 03 Mar 09:25:58 09:29:41 30° 62° (ENE) 09:33:27 145.880/145.840
BUGSAT 1 03 Mar 09:29:18 09:32:50 26° 60° (ENE) 09:36:23 437.445
FUNcube-1 03 Mar 09:32:10 09:34:21 14° 85° (E) 09:36:41 145.935
ZACube-1 03 Mar 09:33:32 09:35:52 15° 85° (E) 09:38:20 437.345
TIGRISAT 03 Mar 09:33:51 09:38:04 50° 68° (ENE) 09:42:15 435.000
BRITE-PL 03 Mar 09:38:55 09:43:42 77° 288° (WNW) 09:48:06 437.365/2234.400
UKube-1 03 Mar 09:40:05 09:42:40 16° 86° (E) 09:45:22 .
DUCHIFAT 1 03 Mar 09:40:14 09:44:10 37° 64° (ENE) 09:48:08 145.980
GOMX 1 03 Mar 09:40:34 09:45:09 81° 105° (ESE) 09:49:26 467.674
CUTE 1.7 + AOD 2 03 Mar 09:42:27 09:46:44 81° 104° (ESE) 09:51:00 437.475
ISS 03 Mar 09:46:03 09:47:46 14° 148° (SSE) 09:49:33 145.825
ANTELSAT 03 Mar 09:47:41 09:52:00 67° 71° (ENE) 09:56:18 437.575/2403.000
DELFI C3 03 Mar 09:52:48 09:56:27 30° 94° (E) 10:00:06 145.870
UWE-3 03 Mar 09:53:24 09:56:51 25° 92° (E) 10:00:21 435.000/436.395/437.385
AIST 1 03 Mar 09:55:41 09:57:29 12° 309° (NW) 09:59:11
